{"data":{"norad_id":62329,"intl_designator":"2024-240G","name":"HULIANWANG DIGUI-07","alt_names":[],"object_type":"PAYLOAD","status":"ACTIVE","operator":null,"country":"PRC","launch_date":"2024-12-16","launch_site_code":"WSC","launch_vehicle":null,"mission":null,"orbit_class":"UNKNOWN","rcs_meters":null,"size_class":null,"mass_kg":null,"dimensions":null,"purposes":[],"wikipedia_slug":null,"has_3d_model":false,"image_url":null,"decayed_at":null,"tle_current":{"epoch":"2026-09-22T20:43:19.763616Z","epoch_age_seconds":107805,"freshness":"FRESH","line1":"1 62329U 24240G   26265.86342319  .00000038  00000+0  55094-4 0  9998","line2":"2 62329  86.4932 309.9649 0001619  89.2972 270.8347 13.24414111 85578","mean_motion":13.24414111,"eccentricity":0.0001619,"inclination_deg":86.4932,"raan_deg":309.9649,"arg_perigee_deg":89.2972,"mean_anomaly_deg":270.8347,"bstar":5.5094e-5,"rev_number":8557,"period_min":108.72732237145,"perigee_km":1166.6848657822,"apogee_km":1169.1282746902,"semimajor_km":7546.0435702362,"source":"CELESTRAK","updated_at":"2026-09-23T09:00:21.355190Z"}}}